Weather History for Garrison, ND

Change the Weather History Date:

Monday, July 29, 2013

  Actual Average Record
Temperature  
Mean Temperature 63 °F -  
Max Temperature 69 °F 79 °F 99 °F (1999)
Min Temperature 56 °F 54 °F 41 °F (2004)
Degree Days  
Heating Degree Days 4    
Growing Degree Days 12 (Base 50)    
Moisture  
Dew Point 55 °F    
Average Humidity 79    
Maximum Humidity 90    
Minimum Humidity 67    
Precipitation  
Precipitation 0.07 in - - ()
Month to date precipitation 2.16  
Year to date precipitation 18.85  
Sea Level Pressure  
Sea Level Pressure 29.95 in    
Wind  
Wind Speed 7 mph (SSE)    
Max Wind Speed 16 mph    
Max Gust Speed 20 mph    
Averages and records for this station are not official NWS values.
T = Trace of Precipitation, MM = Missing Value Source: NWS Daily Summary

Daily Weather History Graph

Daily Weather History Graph

Search for Another Location

Airport:

Trip Planner

Search our weather history database for the weather conditions in past years. The results will help you decide how hot, cold, wet, or windy it might be!

Date:

Astronomy

Jul. 29, 2013 Rise Set
Actual Time 6:19 AM CDT 9:23 PM CDT
Civil Twilight 5:43 AM CDT 10:00 PM CDT
Nautical Twilight 4:55 AM CDT 10:47 PM CDT
Astronomical Twilight 3:57 AM CDT 11:45 PM CDT
Moon 12:12 AM CDT (7/29) 2:41 PM CDT (7/29)
Length of Visible Light 16h 17m
Length of Day
15h 04m
Waning Gibbous, 50% of the Moon is Illuminated
Jul 29
Waning Gibbous
Jul 29
Last Quarter
Aug 6
New
Aug 14
First Quarter
Aug 20
Full

Hourly Weather History & Observations

Time (CDT) Temp. Dew Point Humidity Pressure Visibility Wind Dir Wind Speed Gust Speed Precip Events Conditions
12:52 AM 57.9 °F 50.0 °F 75% 29.95 in - ESE 9.2 mph - N/A   Unknown
1:52 AM 57.9 °F 48.9 °F 72% 29.95 in - SE 8.1 mph - N/A   Unknown
2:52 AM 59.0 °F 48.0 °F 67% 29.94 in - SSE 12.7 mph - N/A   Unknown
3:52 AM 57.9 °F 48.9 °F 72% 29.93 in - SE 9.2 mph - N/A   Unknown
4:52 AM 57.9 °F 48.9 °F 72% 29.91 in - SE 9.2 mph - N/A   Unknown
5:52 AM 57.9 °F 48.9 °F 72% 29.91 in - SE 6.9 mph - N/A   Unknown
6:52 AM 57.0 °F 48.9 °F 74% 29.93 in - SE 8.1 mph - N/A   Unknown
7:52 AM 57.9 °F 50.0 °F 75% 29.94 in - SE 6.9 mph - N/A   Unknown
8:52 AM 60.1 °F 50.0 °F 69% 29.94 in - SE 8.1 mph - N/A   Unknown
9:52 AM 60.1 °F 52.0 °F 75% 29.94 in - SSE 6.9 mph - N/A   Unknown
10:52 AM 63.0 °F 54.0 °F 72% 29.94 in - South 6.9 mph - N/A   Unknown
11:52 AM 62.1 °F 54.0 °F 75% 29.96 in - Calm Calm - 0.01 in   Unknown
12:52 PM 61.0 °F 57.9 °F 90% 29.90 in - ESE 15.0 mph - 0.01 in   Unknown
1:52 PM 66.9 °F 60.1 °F 79% 29.90 in - East 6.9 mph - N/A   Unknown
2:52 PM 64.9 °F 59.0 °F 81% 29.96 in - WSW 6.9 mph - N/A   Unknown
3:52 PM 64.9 °F 61.0 °F 87% 29.94 in - Calm Calm - 0.04 in   Unknown
4:52 PM 66.0 °F 62.1 °F 87% 29.96 in - Calm Calm - 0.01 in   Unknown
5:52 PM 66.9 °F 62.1 °F 84% 29.96 in - South 6.9 mph - N/A   Unknown
6:52 PM 66.9 °F 63.0 °F 87% 29.96 in - South 5.8 mph - N/A   Unknown
7:52 PM 66.9 °F 64.0 °F 90% 29.96 in - Calm Calm - N/A   Unknown
8:52 PM 66.9 °F 62.1 °F 84% 29.98 in - NNW 6.9 mph - N/A   Unknown
9:52 PM 60.1 °F 57.9 °F 93% 30.01 in - NW 5.8 mph - N/A   Unknown
10:52 PM 59.0 °F 57.0 °F 93% 30.02 in - NW 5.8 mph - N/A   Unknown
11:52 PM 55.0 °F 54.0 °F 96% 30.03 in - NNW 6.9 mph - N/A   Unknown